Showing default

BIFROST-DNK, 64588

Orbit data source: Space-Track

BIFROST-DNK, 64588 is a Danish payload satellite in SSO that was launched on Mon, 23 Jun 2025 UTC via an FALCON 9 launch vehicle from the Air Force Western Test Range (AFWTR). Payload-class satellites include a variety of spacecraft equipped with specific instruments for various scientific and technological missions. These include communications satellites like Starlink; space stations such as the ISS; scientific satellites like the Hubble; Earth observation satellites from companies like Planet Labs, Umbra, and HawkEye 360; GPS; miniature CubeSats for education and research; and military/defense satellites.

Loading next visibility...
Identifier
64588, 2025-135BN
Orbit
SSO
Country
Flag of DKDK / DEN
Related business
Manufacturer
Space Inventor
Mission
Operational Defense Imaging
Bus & Motor
SPINV MICRO, Unknown motor
Mass
~50 kg wet, ~50 kg dry
Launch date (UTC)
2025-06-23 (9 months ago)
Launch vehicle
FALCON 9
Launch site
Air Force Western Test Range (AFWTR)
Object type
Payload
Rocket body
Debris
Shape & HBR
Box + 2 Pan, 0.5 m
Radar Cross Section
0.446 m², Medium (>0.1 m² and < 1m²)

Expand to show TLE details & history
Last TLE update: 8 hours ago

TLE from 8 hours ago
0 BIFROST-DNK
1 64588U 25135BN  26072.92598591  .00004003  00000-0  37963-3 0  9990
2 64588  97.7614 188.6053 0003068 316.2465  43.8512 14.94116129 39689
Epoch: 2026-03-13T22:13Z
TLE epoch observation values (Epoch: 2026-03-13T22:13:25.182Z)
Latitude
0.00001°
Longitude
43.69586°
Altitude
586.622 km
Speed
7.568 km/s
True Right ascension
12h 34m 25s
True Declination
0° 00' 00"
Sunlit
Object was in full shadow at epoch
Visualization orbit readout
Latitude
Unknown
Longitude
Unknown
Altitude
Unknown
Speed
Unknown
Apparent Right ascension
Unknown
Apparent Declination
Unknown
Sunlit
N/A
Visualization observer readout
Local Sidereal Time
10:27:23
Azimuth
Unknown
Elevation
Unknown
Doppler factor
Unknown
Orbital elements
Apogee altitude
584.269 km
Perigee altitude
579.998 km
Semi-major axis
6,960.27 km
Eccentricity
0.00031
Inclination
97.7614°
RAAN
188.6053°
Arg. of periapsis
316.2465°
True anomaly
43.87556°
Mean anomaly
43.8512°
Eccentric anomaly
43.86338°
Mean motion
3.7377 °/min
Orbital period
96.32 mins
BSTAR
0.00037963
Loading maneuver chart data...
Computing Atmospheric mass density...
Loading historical data...
Loading historical data...
Loading historical data...
Loading historical data...
Loading historical data...
Loading historical data...
Loading historical data...

Documentation

Showing up to 5 results
|